{"data":{"norad_id":60485,"epoch":"2026-05-25T02:51:01.912032Z","epoch_age_seconds":67899,"freshness":"FRESH","line1":"1 60485U 24149T   26145.11877213  .00007046  00000+0  22798-3 0  9998","line2":"2 60485  97.3817 226.1372 0002897  30.3260 329.8148 15.32360973 98554","mean_motion":15.32360973,"eccentricity":0.0002897,"inclination_deg":97.3817,"raan_deg":226.1372,"arg_perigee_deg":30.326,"mean_anomaly_deg":329.8148,"bstar":0.00022798,"rev_number":9855,"period_min":93.972636041547,"perigee_km":466.78682831206,"apogee_km":470.75392644652,"semimajor_km":6846.9073773793,"source":"CELESTRAK","updated_at":"2026-05-25T13:38:02.113380Z"}}